Location: Canazei
(46.4667°N, 11.7667°E)
Time: 04:01:23
(UTC+00:00)

ATLAS 5 CENTAUR R/B - Pass Details

Date: 21 April 2021
Orbit: 516 x 1141 km, 63.3° (Epoch: 02 May)

Event Time Altitude Azimuth Distance (km) Brightness Sun altitude
Rises 01:41:05 0° 315° (NW) 3,299 5.3 -22.7°
Reaches altitude 10° 01:43:29 10° 307° (NW) 2,461 4.6 -22.5°
Enters shadow 01:48:21 39° 251° (WSW) 1,357 2.8 -21.9°
